South Lake Tahoe, CA

2:28 AM PDT on April 29, 2017 (GMT -0700)
Lake Tahoe

Weather History for KTVL - February, 2011

Change the Weather History Date:

Monday, February 7, 2011

  Actual Average Record
Temperature  
Mean Temperature 41 °F 30 °F  
Max Temperature 58 °F 43 °F 60 °F (1996)
Min Temperature 23 °F 17 °F -29 °F (1989)
Degree Days  
Heating Degree Days 24 35  
Month to date heating degree days 220 245  
Since 1 July heating degree days 4007 4527  
Cooling Degree Days 0 0  
Month to date cooling degree days 0 0  
Year to date cooling degree days 0 0  
Moisture  
Dew Point 19 °F    
Average Humidity 53    
Maximum Humidity 92    
Minimum Humidity 14    
Precipitation  
Precipitation 0.00 in - 2.34 in (2017)
Month to date precipitation 0.00  
Year to date precipitation 0.42  
Snow  
Snow 0.00 in - - ()
Month to date snowfall 0.0  
Snow Depth T in    
Sea Level Pressure  
Sea Level Pressure 30.19 in    
Wind  
Wind Speed 5 mph (South)    
Max Wind Speed 17 mph    
Max Gust Speed 25 mph    
Visibility 10 miles    
Events      
T = Trace of Precipitation, MM = Missing Value Source: NWS Daily Summary

Daily Weather History Graph

Daily Weather History Graph

Search for Another Location

Airport or City:

Trip Planner

Search our weather history database for the weather conditions in past years. The results will help you decide how hot, cold, wet, or windy it might be!

Date:

Astronomy

Feb. 07, 2011 Rise Set
Actual Time 7:00 AM PST 5:28 PM PST
Civil Twilight 6:32 AM PST 5:56 PM PST
Nautical Twilight 6:01 AM PST 6:27 PM PST
Astronomical Twilight 5:30 AM PST 6:58 PM PST
Moon 8:48 AM PST (2/7) 10:11 PM PST (2/7)
Length of Visible Light 11h 23m
Length of Day
10h 27m
Waxing Crescent, 19% of the Moon is Illuminated
Feb 7
Waxing Crescent
Feb 10
First Quarter
Feb 18
Full
Feb 24
Last Quarter
Mar 4
New

Hourly Weather History & Observations

Time (PST) Temp. Windchill Dew Point Humidity Pressure Visibility Wind Dir Wind Speed Gust Speed Precip Events Conditions
12:53 AM 28.0 °F - 24.1 °F 85% 30.36 in 10.0 mi Calm Calm - N/A   Clear
1:53 AM 27.0 °F 21.6 °F 24.1 °F 89% 30.37 in 10.0 mi SSW 4.6 mph - N/A   Clear
2:53 AM 28.0 °F 24.2 °F 24.1 °F 85% 30.34 in 10.0 mi South 3.5 mph - N/A   Clear
3:53 AM 26.1 °F - 21.9 °F 84% 30.32 in 10.0 mi Calm Calm - N/A   Clear
4:53 AM 25.0 °F - 21.0 °F 85% 30.33 in 10.0 mi Calm Calm - N/A   Clear
5:53 AM 26.1 °F 21.9 °F 21.9 °F 84% 30.37 in 10.0 mi South 3.5 mph - N/A   Clear
6:53 AM 27.0 °F 23.0 °F 23.0 °F 85% 30.35 in 10.0 mi South 3.5 mph - N/A   Partly Cloudy
7:53 AM 28.9 °F 22.8 °F 24.1 °F 82% 30.30 in 10.0 mi South 5.8 mph - N/A   Clear
8:53 AM 34.0 °F - 27.0 °F 75% 30.33 in 10.0 mi Calm Calm - N/A   Clear
9:53 AM 43.0 °F 39.5 °F 28.0 °F 56% 30.29 in 10.0 mi South 5.8 mph - N/A   Clear
10:53 AM 50.0 °F - 24.1 °F 36% 30.23 in 10.0 mi South 9.2 mph - N/A   Clear
11:53 AM 55.9 °F - 14.0 °F 19% 30.15 in 10.0 mi Variable 6.9 mph 18.4 mph N/A   Clear
12:53 PM 55.9 °F - 6.1 °F 14% 30.13 in 10.0 mi SW 8.1 mph 16.1 mph N/A   Clear
1:53 PM 54.0 °F - 14.0 °F 21% 30.10 in 10.0 mi Variable 4.6 mph 16.1 mph N/A   Clear
2:53 PM 52.0 °F - 17.1 °F 25% 30.08 in 10.0 mi SSW 10.4 mph 19.6 mph N/A   Clear
3:53 PM 50.0 °F - 17.1 °F 27% 30.09 in 10.0 mi Variable 6.9 mph - N/A   Clear
4:53 PM 46.0 °F 41.0 °F 17.1 °F 31% 30.08 in 10.0 mi SW 10.4 mph 17.3 mph N/A   Clear
5:53 PM 43.0 °F 37.2 °F 18.0 °F 37% 30.06 in 10.0 mi South 10.4 mph - N/A   Clear
6:53 PM 42.1 °F 35.2 °F 18.0 °F 38% 30.04 in 10.0 mi SSW 12.7 mph - N/A   Clear
7:53 PM 37.9 °F 33.5 °F 19.0 °F 47% 30.04 in 10.0 mi SSW 5.8 mph - N/A   Clear
8:53 PM 30.9 °F - 19.9 °F 64% 30.06 in 10.0 mi Calm Calm - N/A   Clear
9:53 PM 33.1 °F 30.0 °F 17.1 °F 52% 30.04 in 10.0 mi Variable 3.5 mph - N/A   Clear
10:53 PM 30.9 °F 27.5 °F 12.0 °F 46% 30.02 in 10.0 mi NE 3.5 mph - N/A   Scattered Clouds
11:53 PM 28.9 °F 20.4 °F 10.9 °F 47% 30.00 in 10.0 mi East 9.2 mph 16.1 mph N/A   Scattered Clouds